GPS BIIA-10 (PRN 32)

Last updated on Jan. 25, 2016, 9 a.m. UTC

1 20959U 90103A   16024.20126113  .00000011  00000-0  00000+0 0  9998
2 20959  54.2511 185.2912 0113080  11.2764 348.9344  2.00568656184272
UTC
Height (km)
Latitude
Longitude
Inclination
Orbital Period
UTC large
Height (km)
Speed (km/s)
/
Latitude / Longitude
Inclination (degrees)
Orbital Period (minutes)
Azimuth
Elevation
Range (km)
Doppler Factor
iOS Compass Heading
iOS Angle